TimePST,TemperatureF,Dew PointF,Humidity,Sea Level PressureIn,VisibilityMPH,Wind Direction,Wind SpeedMPH,Gust SpeedMPH,PrecipitationIn,Events,Conditions,WindDirDegrees,DateUTC
12:56 AM,57.0,46.0,67,29.92,10.0,SSE,10.4,-,N/A,,Overcast,150,2012-11-28 08:56:00
1:56 AM,57.0,45.0,64,29.89,10.0,SSE,9.2,-,N/A,,Overcast,160,2012-11-28 09:56:00
2:56 AM,57.0,46.0,67,29.87,10.0,South,9.2,19.6,N/A,,Overcast,170,2012-11-28 10:56:00
3:56 AM,55.0,46.9,74,29.85,10.0,South,10.4,18.4,0.01,,Overcast,170,2012-11-28 11:56:00
4:48 AM,53.6,48.2,82,29.85,10.0,South,15.0,25.3,0.00,Rain,Light Rain,170,2012-11-28 12:48:00
4:56 AM,53.1,48.9,86,29.84,7.0,SSE,11.5,25.3,0.01,Rain,Light Rain,160,2012-11-28 12:56:00
5:11 AM,53.6,48.2,82,29.84,6.0,SSE,11.5,23.0,0.03,Rain,Rain,160,2012-11-28 13:11:00
5:56 AM,53.1,48.9,86,29.81,5.0,SSE,12.7,27.6,0.13,Rain,Rain,150,2012-11-28 13:56:00
6:56 AM,53.1,50.0,89,29.77,6.0,South,13.8,-,0.14,Rain,Rain,170,2012-11-28 14:56:00
7:10 AM,53.6,50.0,88,29.78,5.0,South,15.0,23.0,0.04,Rain,Rain,170,2012-11-28 15:10:00
7:56 AM,54.0,51.1,90,29.76,4.0,SSE,15.0,23.0,0.17,Rain,Rain,160,2012-11-28 15:56:00
8:56 AM,54.0,51.1,90,29.79,2.5,SSE,9.2,18.4,0.26,Rain,Heavy Rain,160,2012-11-28 16:56:00
9:13 AM,55.4,51.8,88,29.83,1.8,SSW,5.8,-,0.13,Rain,Heavy Rain,200,2012-11-28 17:13:00
9:27 AM,53.6,51.8,94,29.84,3.0,SSE,11.5,-,0.21,Rain,Rain,150,2012-11-28 17:27:00
9:38 AM,53.6,51.8,94,29.83,2.5,Variable,3.5,-,0.25,Rain,Heavy Rain,0,2012-11-28 17:38:00
9:51 AM,53.6,51.8,94,29.85,4.0,South,5.8,-,0.29,Rain,Rain,180,2012-11-28 17:51:00
9:56 AM,53.1,51.1,93,29.83,4.0,SE,3.5,-,0.31,Rain,Rain,140,2012-11-28 17:56:00
10:29 AM,53.6,51.8,94,29.84,2.0,SSW,5.8,-,0.08,Rain,Rain,200,2012-11-28 18:29:00
10:38 AM,53.6,51.8,94,29.85,1.8,Variable,4.6,-,0.12,Rain,Heavy Rain,0,2012-11-28 18:38:00
10:45 AM,53.6,51.8,94,29.85,2.0,South,4.6,-,0.13,Rain,Rain,170,2012-11-28 18:45:00
10:54 AM,53.6,51.8,94,29.86,5.0,SSE,4.6,-,0.15,Rain,Light Rain,160,2012-11-28 18:54:00
10:56 AM,54.0,51.1,90,29.85,6.0,SSE,5.8,-,0.15,Rain,Light Rain,160,2012-11-28 18:56:00
11:32 AM,53.6,53.6,100,29.86,1.8,SE,4.6,-,0.03,Rain,Rain,140,2012-11-28 19:32:00
11:44 AM,53.6,51.8,94,29.86,3.0,SSE,6.9,-,0.05,Rain,Light Rain,150,2012-11-28 19:44:00
11:56 AM,54.0,53.1,97,29.85,2.5,SE,5.8,-,0.06,Rain,Rain,140,2012-11-28 19:56:00
12:25 PM,53.6,53.6,100,29.86,10.0,Calm,Calm,-,0.03,,Overcast,0,2012-11-28 20:25:00
12:47 PM,55.4,53.6,94,29.86,6.0,East,3.5,-,0.03,Rain,Light Rain,100,2012-11-28 20:47:00
12:54 PM,55.4,51.8,88,29.86,6.0,Calm,Calm,-,0.04,Rain,Light Rain,0,2012-11-28 20:54:00
12:56 PM,55.0,52.0,89,29.86,7.0,Calm,Calm,-,0.04,Rain,Light Rain,0,2012-11-28 20:56:00
1:20 PM,57.2,53.6,88,29.86,10.0,Calm,Calm,-,0.01,Rain,Light Rain,0,2012-11-28 21:20:00
1:29 PM,57.2,53.6,88,29.86,10.0,SE,5.8,-,0.01,,Mostly Cloudy,130,2012-11-28 21:29:00
1:36 PM,57.2,51.8,82,29.86,10.0,SSE,6.9,-,0.01,,Mostly Cloudy,160,2012-11-28 21:36:00
1:43 PM,57.2,53.6,88,29.87,10.0,Variable,5.8,-,0.01,,Mostly Cloudy,0,2012-11-28 21:43:00
1:52 PM,57.2,51.8,82,29.87,10.0,SSE,6.9,-,0.01,,Mostly Cloudy,150,2012-11-28 21:52:00
1:56 PM,57.0,52.0,83,29.86,10.0,SSE,5.8,-,0.01,,Mostly Cloudy,160,2012-11-28 21:56:00
2:56 PM,57.9,51.1,78,29.88,10.0,SSE,8.1,-,N/A,,Mostly Cloudy,150,2012-11-28 22:56:00
3:56 PM,55.9,51.1,84,29.91,10.0,South,5.8,-,N/A,,Scattered Clouds,180,2012-11-28 23:56:00
4:56 PM,55.0,50.0,83,29.93,10.0,South,4.6,-,N/A,,Overcast,190,2012-11-29 00:56:00
5:56 PM,55.0,48.9,80,29.93,10.0,SSE,5.8,-,N/A,,Overcast,160,2012-11-29 01:56:00
6:31 PM,53.6,48.2,82,29.95,10.0,South,5.8,-,N/A,,Mostly Cloudy,180,2012-11-29 02:31:00
6:56 PM,55.0,48.9,80,29.96,10.0,South,4.6,-,N/A,,Overcast,170,2012-11-29 02:56:00
7:20 PM,53.6,48.2,82,29.96,10.0,SE,5.8,-,N/A,,Mostly Cloudy,130,2012-11-29 03:20:00
7:56 PM,54.0,50.0,86,29.95,10.0,SSE,5.8,-,N/A,,Mostly Cloudy,160,2012-11-29 03:56:00
8:56 PM,55.0,51.1,86,29.96,10.0,SE,9.2,-,0.00,Rain,Light Rain,140,2012-11-29 04:56:00
10:56 PM,54.0,51.1,90,29.98,10.0,SE,8.1,-,0.01,,Overcast,140,2012-11-29 06:56:00
11:56 PM,55.0,51.1,86,29.99,10.0,SE,12.7,19.6,N/A,,Overcast,140,2012-11-29 07:56:00